Location: Ar Ranvel
(48.3000°N, 4.8833°W)
Time: 14:29:13
(UTC+00:00)

Cosmos 1891 Rocket - Pass Details

Date: 16 June 2021
Orbit: 934 x 1017 km, 82.9° (Epoch: 29 July)

Event Time Altitude Azimuth Distance (km) Brightness Sun altitude
Rises 23:28:31 0° 351° (N) 3,626 9.3 -17.4°
Reaches altitude 10° 23:31:00 10° 352° (N) 2,686 8.1 -17.5°
Maximum altitude 23:37:10 85° 80° (E) 973 4.4 -17.7°
Enters shadow 23:40:37 29° 169° (S) 1,715 5.2 -17.8°
